Main page
METAR-TAF:

METAR-TAF

Airports :

Tahoua Airport

Tahoua, Niger

latitude: 14-54N, longitude: 005-15E, elevation: 386 m

Current weather observation

The report was made 4 hours and 53 minutes ago, at 18:00 UTC
Wind 5 kt from the West
Temperature 31°C
Humidity 52%
Pressure 1011 hPa
Visibility 10 km or more
Few clouds at a height of 5000 ft

METAR: DRRT 091800Z 28005KT 9999 FEW050 CB 31/20 Q1011

Time: 23:53 (22:53 UTC)


TAF: missing

Weather observations and forecasts of more than 4000 airports (METAR and TAF reports).

The available stations are represented by yellow and red dots on the map.

Hover mouse over dot to see the name of the station.

Then click to see weather observations and forecasts.

To change the map : click on the green buttons with a black cross to zoom in, on the green button with a dash to zoom out, or on the green arrows for adjacent maps.


METAR-TAF: